owner,sensor,date,latitude,longitude,vertical_datum,sea_water_temperature,qcFlag 
FWRI,ioos:station:FWRI:NPD:1,2013-01-01T00:59:00Z,27.3338,-82.5794,0.0,17.39,2 
FWRI,ioos:station:FWRI:NPD:1,2013-01-01T01:59:00Z,27.3338,-82.5794,0.0,17.21,2 
FWRI,ioos:station:FWRI:NPD:1,2013-01-01T02:59:00Z,27.3338,-82.5794,0.0,15.94,2 
FWRI,ioos:station:FWRI:NPD:1,2013-01-01T03:59:00Z,27.3338,-82.5794,0.0,14.94,2 
FWRI,ioos:station:FWRI:NPD:1,2013-01-01T04:59:00Z,27.3338,-82.5794,0.0,14.4,2 
FWRI,ioos:station:FWRI:NPD:1,2013-01-01T05:59:00Z,27.3338,-82.5794,0.0,13.77,2 
FWRI,ioos:station:FWRI:NPD:1,2013-01-01T06:59:00Z,27.3338,-82.5794,0.0,16.44,2 
FWRI,ioos:station:FWRI:NPD:1,2013-01-01T07:59:00Z,27.3338,-82.5794,0.0,16.67,2 
FWRI,ioos:station:FWRI:NPD:1,2013-01-01T08:59:00Z,27.3338,-82.5794,0.0,16.61,2 
FWRI,ioos:station:FWRI:NPD:1,2013-01-01T09:59:00Z,27.3338,-82.5794,0.0,16.57,2 
FWRI,ioos:station:FWRI:NPD:1,2013-01-01T10:59:00Z,27.3338,-82.5794,0.0,16.43,2 
FWRI,ioos:station:FWRI:NPD:1,2013-01-01T11:59:00Z,27.3338,-82.5794,0.0,16.32,2 
FWRI,ioos:station:FWRI:NPD:1,2013-01-01T12:59:00Z,27.3338,-82.5794,0.0,16.37,2 
FWRI,ioos:station:FWRI:NPD:1,2013-01-01T13:59:00Z,27.3338,-82.5794,0.0,16.25,2 
FWRI,ioos:station:FWRI:NPD:1,2013-01-01T14:59:00Z,27.3338,-82.5794,0.0,16.46,2 
FWRI,ioos:station:FWRI:NPD:1,2013-01-01T15:59:00Z,27.3338,-82.5794,0.0,16.86,2 
FWRI,ioos:station:FWRI:NPD:1,2013-01-01T16:59:00Z,27.3338,-82.5794,0.0,17.09,2 
FWRI,ioos:station:FWRI:NPD:1,2013-01-01T17:59:00Z,27.3338,-82.5794,0.0,17.65,2 
FWRI,ioos:station:FWRI:NPD:1,2013-01-01T18:59:00Z,27.3338,-82.5794,0.0,17.96,2 
FWRI,ioos:station:FWRI:NPD:1,2013-01-01T19:59:00Z,27.3338,-82.5794,0.0,18.08,2 
FWRI,ioos:station:FWRI:NPD:1,2013-01-01T20:59:00Z,27.3338,-82.5794,0.0,20.97,2 
FWRI,ioos:station:FWRI:NPD:1,2013-01-01T21:59:00Z,27.3338,-82.5794,0.0,22.89,2 
FWRI,ioos:station:FWRI:NPD:1,2013-01-01T22:59:00Z,27.3338,-82.5794,0.0,23.13,2 
FWRI,ioos:station:FWRI:NPD:1,2013-01-01T23:59:00Z,27.3338,-82.5794,0.0,17.91,2 
FWRI,ioos:station:FWRI:NPD:1,2013-01-02T00:59:00Z,27.3338,-82.5794,0.0,17.87,2 
FWRI,ioos:station:FWRI:NPD:1,2013-01-02T01:59:00Z,27.3338,-82.5794,0.0,17.75,2 
FWRI,ioos:station:FWRI:NPD:1,2013-01-02T02:59:00Z,27.3338,-82.5794,0.0,17.75,2 
FWRI,ioos:station:FWRI:NPD:1,2013-01-02T03:59:00Z,27.3338,-82.5794,0.0,17.61,2 
FWRI,ioos:station:FWRI:NPD:1,2013-01-02T04:59:00Z,27.3338,-82.5794,0.0,17.62,2 
FWRI,ioos:station:FWRI:NPD:1,2013-01-02T05:59:00Z,27.3338,-82.5794,0.0,17.67,2 
FWRI,ioos:station:FWRI:NPD:1,2013-01-02T06:59:00Z,27.3338,-82.5794,0.0,17.65,2 
FWRI,ioos:station:FWRI:NPD:1,2013-01-02T07:59:00Z,27.3338,-82.5794,0.0,17.64,2 
FWRI,ioos:station:FWRI:NPD:1,2013-01-02T08:59:00Z,27.3338,-82.5794,0.0,17.65,2 
FWRI,ioos:station:FWRI:NPD:1,2013-01-02T09:59:00Z,27.3338,-82.5794,0.0,17.63,2 
FWRI,ioos:station:FWRI:NPD:1,2013-01-02T10:59:00Z,27.3338,-82.5794,0.0,17.56,2 
FWRI,ioos:station:FWRI:NPD:1,2013-01-02T11:59:00Z,27.3338,-82.5794,0.0,17.43,2 
FWRI,ioos:station:FWRI:NPD:1,2013-01-02T12:59:00Z,27.3338,-82.5794,0.0,17.43,2 
FWRI,ioos:station:FWRI:NPD:1,2013-01-02T13:59:00Z,27.3338,-82.5794,0.0,17.46,2 
FWRI,ioos:station:FWRI:NPD:1,2013-01-02T14:59:00Z,27.3338,-82.5794,0.0,17.52,2 
FWRI,ioos:station:FWRI:NPD:1,2013-01-02T15:59:00Z,27.3338,-82.5794,0.0,17.68,2 
FWRI,ioos:station:FWRI:NPD:1,2013-01-02T16:59:00Z,27.3338,-82.5794,0.0,17.9,2 
FWRI,ioos:station:FWRI:NPD:1,2013-01-02T17:59:00Z,27.3338,-82.5794,0.0,18.3,2 
FWRI,ioos:station:FWRI:NPD:1,2013-01-02T18:59:00Z,27.3338,-82.5794,0.0,18.58,2 
FWRI,ioos:station:FWRI:NPD:1,2013-01-02T19:59:00Z,27.3338,-82.5794,0.0,18.73,2 
FWRI,ioos:station:FWRI:NPD:1,2013-01-02T20:59:00Z,27.3338,-82.5794,0.0,18.76,2 
FWRI,ioos:station:FWRI:NPD:1,2013-01-02T21:59:00Z,27.3338,-82.5794,0.0,22.11,2 
FWRI,ioos:station:FWRI:NPD:1,2013-01-02T22:59:00Z,27.3338,-82.5794,0.0,18.68,2 
FWRI,ioos:station:FWRI:NPD:1,2013-01-02T23:59:00Z,27.3338,-82.5794,0.0,18.5,2 
FWRI,ioos:station:FWRI:NPD:1,2013-01-03T00:59:00Z,27.3338,-82.5794,0.0,18.58,2 
FWRI,ioos:station:FWRI:NPD:1,2013-01-03T01:59:00Z,27.3338,-82.5794,0.0,18.52,2 
FWRI,ioos:station:FWRI:NPD:1,2013-01-03T02:59:00Z,27.3338,-82.5794,0.0,18.45,2 
FWRI,ioos:station:FWRI:NPD:1,2013-01-03T03:59:00Z,27.3338,-82.5794,0.0,18.45,2 
FWRI,ioos:station:FWRI:NPD:1,2013-01-03T04:59:00Z,27.3338,-82.5794,0.0,18.37,2 
FWRI,ioos:station:FWRI:NPD:1,2013-01-03T05:59:00Z,27.3338,-82.5794,0.0,18.34,2 
FWRI,ioos:station:FWRI:NPD:1,2013-01-03T06:59:00Z,27.3338,-82.5794,0.0,18.28,2 
FWRI,ioos:station:FWRI:NPD:1,2013-01-03T07:59:00Z,27.3338,-82.5794,0.0,18.25,2 
FWRI,ioos:station:FWRI:NPD:1,2013-01-03T08:59:00Z,27.3338,-82.5794,0.0,18.21,2 
FWRI,ioos:station:FWRI:NPD:1,2013-01-03T09:59:00Z,27.3338,-82.5794,0.0,18.24,2 
FWRI,ioos:station:FWRI:NPD:1,2013-01-03T10:59:00Z,27.3338,-82.5794,0.0,18.24,2 
FWRI,ioos:station:FWRI:NPD:1,2013-01-03T11:59:00Z,27.3338,-82.5794,0.0,17.81,2 
FWRI,ioos:station:FWRI:NPD:1,2013-01-03T12:59:00Z,27.3338,-82.5794,0.0,18.25,2 
FWRI,ioos:station:FWRI:NPD:1,2013-01-03T13:59:00Z,27.3338,-82.5794,0.0,18.24,2 
FWRI,ioos:station:FWRI:NPD:1,2013-01-03T14:59:00Z,27.3338,-82.5794,0.0,18.26,2 
FWRI,ioos:station:FWRI:NPD:1,2013-01-03T15:59:00Z,27.3338,-82.5794,0.0,18.52,2 
FWRI,ioos:station:FWRI:NPD:1,2013-01-03T16:59:00Z,27.3338,-82.5794,0.0,18.78,2 
FWRI,ioos:station:FWRI:NPD:1,2013-01-03T17:59:00Z,27.3338,-82.5794,0.0,18.78,2 
FWRI,ioos:station:FWRI:NPD:1,2013-01-03T18:59:00Z,27.3338,-82.5794,0.0,19.4,2 
FWRI,ioos:station:FWRI:NPD:1,2013-01-03T19:59:00Z,27.3338,-82.5794,0.0,19.53,2 
FWRI,ioos:station:FWRI:NPD:1,2013-01-03T20:59:00Z,27.3338,-82.5794,0.0,19.45,2 
FWRI,ioos:station:FWRI:NPD:1,2013-01-03T21:59:00Z,27.3338,-82.5794,0.0,19.38,2 
FWRI,ioos:station:FWRI:NPD:1,2013-01-03T22:59:00Z,27.3338,-82.5794,0.0,20.01,2 
FWRI,ioos:station:FWRI:NPD:1,2013-01-03T23:59:00Z,27.3338,-82.5794,0.0,20.54,2 
FWRI,ioos:station:FWRI:NPD:1,2013-01-04T00:59:00Z,27.3338,-82.5794,0.0,20.25,2 
FWRI,ioos:station:FWRI:NPD:1,2013-01-04T01:59:00Z,27.3338,-82.5794,0.0,20.08,2 
FWRI,ioos:station:FWRI:NPD:1,2013-01-04T02:59:00Z,27.3338,-82.5794,0.0,19.93,2 
FWRI,ioos:station:FWRI:NPD:1,2013-01-04T03:59:00Z,27.3338,-82.5794,0.0,19.22,2 
FWRI,ioos:station:FWRI:NPD:1,2013-01-04T04:59:00Z,27.3338,-82.5794,0.0,18.97,2 
FWRI,ioos:station:FWRI:NPD:1,2013-01-04T05:59:00Z,27.3338,-82.5794,0.0,18.88,2 
FWRI,ioos:station:FWRI:NPD:1,2013-01-04T06:59:00Z,27.3338,-82.5794,0.0,18.74,2 
FWRI,ioos:station:FWRI:NPD:1,2013-01-04T07:59:00Z,27.3338,-82.5794,0.0,18.67,2 
FWRI,ioos:station:FWRI:NPD:1,2013-01-04T08:59:00Z,27.3338,-82.5794,0.0,18.6,2 
FWRI,ioos:station:FWRI:NPD:1,2013-01-04T09:59:00Z,27.3338,-82.5794,0.0,18.55,2 
FWRI,ioos:station:FWRI:NPD:1,2013-01-04T10:59:00Z,27.3338,-82.5794,0.0,18.54,2 
FWRI,ioos:station:FWRI:NPD:1,2013-01-04T11:59:00Z,27.3338,-82.5794,0.0,18.5,2 
FWRI,ioos:station:FWRI:NPD:1,2013-01-04T12:59:00Z,27.3338,-82.5794,0.0,18.37,2 
FWRI,ioos:station:FWRI:NPD:1,2013-01-04T13:59:00Z,27.3338,-82.5794,0.0,18.39,2 
FWRI,ioos:station:FWRI:NPD:1,2013-01-04T14:59:00Z,27.3338,-82.5794,0.0,18.39,2 
FWRI,ioos:station:FWRI:NPD:1,2013-01-04T15:59:00Z,27.3338,-82.5794,0.0,18.34,2 
FWRI,ioos:station:FWRI:NPD:1,2013-01-04T16:59:00Z,27.3338,-82.5794,0.0,18.19,2 
FWRI,ioos:station:FWRI:NPD:1,2013-01-04T17:59:00Z,27.3338,-82.5794,0.0,18.15,2 
FWRI,ioos:station:FWRI:NPD:1,2013-01-04T18:59:00Z,27.3338,-82.5794,0.0,17.94,2 
FWRI,ioos:station:FWRI:NPD:1,2013-01-04T19:59:00Z,27.3338,-82.5794,0.0,18.3,2 
FWRI,ioos:station:FWRI:NPD:1,2013-01-04T20:59:00Z,27.3338,-82.5794,0.0,18.84,2 
FWRI,ioos:station:FWRI:NPD:1,2013-01-04T21:59:00Z,27.3338,-82.5794,0.0,19.07,2 
FWRI,ioos:station:FWRI:NPD:1,2013-01-04T22:59:00Z,27.3338,-82.5794,0.0,18.93,2 
FWRI,ioos:station:FWRI:NPD:1,2013-01-04T23:59:00Z,27.3338,-82.5794,0.0,18.45,2 
FWRI,ioos:station:FWRI:NPD:1,2013-01-05T00:59:00Z,27.3338,-82.5794,0.0,17.84,2 
FWRI,ioos:station:FWRI:NPD:1,2013-01-05T01:59:00Z,27.3338,-82.5794,0.0,18.22,2 
FWRI,ioos:station:FWRI:NPD:1,2013-01-05T02:59:00Z,27.3338,-82.5794,0.0,18.26,2 
FWRI,ioos:station:FWRI:NPD:1,2013-01-05T03:59:00Z,27.3338,-82.5794,0.0,18.27,2 
FWRI,ioos:station:FWRI:NPD:1,2013-01-05T04:59:00Z,27.3338,-82.5794,0.0,18.16,2 
FWRI,ioos:station:FWRI:NPD:1,2013-01-05T05:59:00Z,27.3338,-82.5794,0.0,18.14,2 
FWRI,ioos:station:FWRI:NPD:1,2013-01-05T06:59:00Z,27.3338,-82.5794,0.0,18.08,2 
FWRI,ioos:station:FWRI:NPD:1,2013-01-05T07:59:00Z,27.3338,-82.5794,0.0,18.05,2 
FWRI,ioos:station:FWRI:NPD:1,2013-01-05T08:59:00Z,27.3338,-82.5794,0.0,18.03,2 
FWRI,ioos:station:FWRI:NPD:1,2013-01-05T09:59:00Z,27.3338,-82.5794,0.0,17.93,2 
FWRI,ioos:station:FWRI:NPD:1,2013-01-05T10:59:00Z,27.3338,-82.5794,0.0,17.92,2 
FWRI,ioos:station:FWRI:NPD:1,2013-01-05T11:59:00Z,27.3338,-82.5794,0.0,17.91,2 
FWRI,ioos:station:FWRI:NPD:1,2013-01-05T12:59:00Z,27.3338,-82.5794,0.0,17.93,2 
FWRI,ioos:station:FWRI:NPD:1,2013-01-05T13:59:00Z,27.3338,-82.5794,0.0,17.87,2 
FWRI,ioos:station:FWRI:NPD:1,2013-01-05T14:59:00Z,27.3338,-82.5794,0.0,17.88,2 
FWRI,ioos:station:FWRI:NPD:1,2013-01-05T15:59:00Z,27.3338,-82.5794,0.0,17.63,2 
FWRI,ioos:station:FWRI:NPD:1,2013-01-05T16:59:00Z,27.3338,-82.5794,0.0,18.59,2 
FWRI,ioos:station:FWRI:NPD:1,2013-01-05T17:59:00Z,27.3338,-82.5794,0.0,18.35,2 
FWRI,ioos:station:FWRI:NPD:1,2013-01-05T18:59:00Z,27.3338,-82.5794,0.0,21.41,2 
FWRI,ioos:station:FWRI:NPD:1,2013-01-05T19:59:00Z,27.3338,-82.5794,0.0,23.69,2 
FWRI,ioos:station:FWRI:NPD:1,2013-01-05T20:59:00Z,27.3338,-82.5794,0.0,25.29,2 
FWRI,ioos:station:FWRI:NPD:1,2013-01-05T21:59:00Z,27.3338,-82.5794,0.0,19.36,2 
FWRI,ioos:station:FWRI:NPD:1,2013-01-05T22:59:00Z,27.3338,-82.5794,0.0,19.04,2 
FWRI,ioos:station:FWRI:NPD:1,2013-01-05T23:59:00Z,27.3338,-82.5794,0.0,18.87,2 
FWRI,ioos:station:FWRI:NPD:1,2013-01-06T00:59:00Z,27.3338,-82.5794,0.0,18.73,2 
FWRI,ioos:station:FWRI:NPD:1,2013-01-06T01:59:00Z,27.3338,-82.5794,0.0,18.69,2 
FWRI,ioos:station:FWRI:NPD:1,2013-01-06T02:59:00Z,27.3338,-82.5794,0.0,18.75,2 
FWRI,ioos:station:FWRI:NPD:1,2013-01-06T03:59:00Z,27.3338,-82.5794,0.0,18.78,2 
FWRI,ioos:station:FWRI:NPD:1,2013-01-06T04:59:00Z,27.3338,-82.5794,0.0,18.92,2 
FWRI,ioos:station:FWRI:NPD:1,2013-01-06T05:59:00Z,27.3338,-82.5794,0.0,18.9,2 
FWRI,ioos:station:FWRI:NPD:1,2013-01-06T06:59:00Z,27.3338,-82.5794,0.0,18.83,2 
FWRI,ioos:station:FWRI:NPD:1,2013-01-06T07:59:00Z,27.3338,-82.5794,0.0,18.78,2 
FWRI,ioos:station:FWRI:NPD:1,2013-01-06T08:59:00Z,27.3338,-82.5794,0.0,18.72,2 
FWRI,ioos:station:FWRI:NPD:1,2013-01-06T09:59:00Z,27.3338,-82.5794,0.0,18.69,2 
FWRI,ioos:station:FWRI:NPD:1,2013-01-06T10:59:00Z,27.3338,-82.5794,0.0,18.57,2 
FWRI,ioos:station:FWRI:NPD:1,2013-01-06T11:59:00Z,27.3338,-82.5794,0.0,18.45,2 
FWRI,ioos:station:FWRI:NPD:1,2013-01-06T12:59:00Z,27.3338,-82.5794,0.0,18.41,2 
FWRI,ioos:station:FWRI:NPD:1,2013-01-06T13:59:00Z,27.3338,-82.5794,0.0,18.14,2 
FWRI,ioos:station:FWRI:NPD:1,2013-01-06T14:59:00Z,27.3338,-82.5794,0.0,18.42,2 
FWRI,ioos:station:FWRI:NPD:1,2013-01-06T15:59:00Z,27.3338,-82.5794,0.0,18.59,2 
FWRI,ioos:station:FWRI:NPD:1,2013-01-06T16:59:00Z,27.3338,-82.5794,0.0,18.8,2 
FWRI,ioos:station:FWRI:NPD:1,2013-01-06T17:59:00Z,27.3338,-82.5794,0.0,19.18,2 
FWRI,ioos:station:FWRI:NPD:1,2013-01-06T18:59:00Z,27.3338,-82.5794,0.0,19.26,2 
FWRI,ioos:station:FWRI:NPD:1,2013-01-06T19:59:00Z,27.3338,-82.5794,0.0,19.48,2 
FWRI,ioos:station:FWRI:NPD:1,2013-01-06T20:59:00Z,27.3338,-82.5794,0.0,19.72,2 
FWRI,ioos:station:FWRI:NPD:1,2013-01-06T21:59:00Z,27.3338,-82.5794,0.0,19.86,2 
FWRI,ioos:station:FWRI:NPD:1,2013-01-06T22:59:00Z,27.3338,-82.5794,0.0,19.83,2 
FWRI,ioos:station:FWRI:NPD:1,2013-01-06T23:59:00Z,27.3338,-82.5794,0.0,19.66,2 
FWRI,ioos:station:FWRI:NPD:1,2013-01-07T00:59:00Z,27.3338,-82.5794,0.0,19.53,2 
FWRI,ioos:station:FWRI:NPD:1,2013-01-07T01:59:00Z,27.3338,-82.5794,0.0,19.43,2 
FWRI,ioos:station:FWRI:NPD:1,2013-01-07T02:59:00Z,27.3338,-82.5794,0.0,19.42,2 
FWRI,ioos:station:FWRI:NPD:1,2013-01-07T03:59:00Z,27.3338,-82.5794,0.0,19.48,2 
FWRI,ioos:station:FWRI:NPD:1,2013-01-07T04:59:00Z,27.3338,-82.5794,0.0,19.54,2 
FWRI,ioos:station:FWRI:NPD:1,2013-01-07T05:59:00Z,27.3338,-82.5794,0.0,19.58,2 
FWRI,ioos:station:FWRI:NPD:1,2013-01-07T06:59:00Z,27.3338,-82.5794,0.0,19.57,2 
FWRI,ioos:station:FWRI:NPD:1,2013-01-07T07:59:00Z,27.3338,-82.5794,0.0,19.5,2 
FWRI,ioos:station:FWRI:NPD:1,2013-01-07T08:59:00Z,27.3338,-82.5794,0.0,19.36,2 
FWRI,ioos:station:FWRI:NPD:1,2013-01-07T09:59:00Z,27.3338,-82.5794,0.0,19.31,2 
FWRI,ioos:station:FWRI:NPD:1,2013-01-07T10:59:00Z,27.3338,-82.5794,0.0,19.3,2 
FWRI,ioos:station:FWRI:NPD:1,2013-01-07T11:59:00Z,27.3338,-82.5794,0.0,19.26,2 
FWRI,ioos:station:FWRI:NPD:1,2013-01-07T12:59:00Z,27.3338,-82.5794,0.0,18.96,2 
FWRI,ioos:station:FWRI:NPD:1,2013-01-07T13:59:00Z,27.3338,-82.5794,0.0,18.81,2 
FWRI,ioos:station:FWRI:NPD:1,2013-01-07T14:59:00Z,27.3338,-82.5794,0.0,18.73,2 
FWRI,ioos:station:FWRI:NPD:1,2013-01-07T15:59:00Z,27.3338,-82.5794,0.0,18.69,2 
FWRI,ioos:station:FWRI:NPD:1,2013-01-07T16:59:00Z,27.3338,-82.5794,0.0,18.68,2 
FWRI,ioos:station:FWRI:NPD:1,2013-01-07T17:59:00Z,27.3338,-82.5794,0.0,18.7,2 
FWRI,ioos:station:FWRI:NPD:1,2013-01-07T18:59:00Z,27.3338,-82.5794,0.0,18.79,2 
FWRI,ioos:station:FWRI:NPD:1,2013-01-07T19:59:00Z,27.3338,-82.5794,0.0,18.86,2 
FWRI,ioos:station:FWRI:NPD:1,2013-01-07T20:59:00Z,27.3338,-82.5794,0.0,19.07,2 
FWRI,ioos:station:FWRI:NPD:1,2013-01-07T21:59:00Z,27.3338,-82.5794,0.0,19.12,2 
FWRI,ioos:station:FWRI:NPD:1,2013-01-07T22:59:00Z,27.3338,-82.5794,0.0,19.05,2 
FWRI,ioos:station:FWRI:NPD:1,2013-01-07T23:59:00Z,27.3338,-82.5794,0.0,18.99,2 
FWRI,ioos:station:FWRI:NPD:1,2013-01-08T00:59:00Z,27.3338,-82.5794,0.0,18.93,2 
FWRI,ioos:station:FWRI:NPD:1,2013-01-08T01:59:00Z,27.3338,-82.5794,0.0,18.87,2 
FWRI,ioos:station:FWRI:NPD:1,2013-01-08T02:59:00Z,27.3338,-82.5794,0.0,18.84,2 
FWRI,ioos:station:FWRI:NPD:1,2013-01-08T03:59:00Z,27.3338,-82.5794,0.0,18.74,2 
FWRI,ioos:station:FWRI:NPD:1,2013-01-08T04:59:00Z,27.3338,-82.5794,0.0,18.87,2 
FWRI,ioos:station:FWRI:NPD:1,2013-01-08T05:59:00Z,27.3338,-82.5794,0.0,18.84,2 
FWRI,ioos:station:FWRI:NPD:1,2013-01-08T06:59:00Z,27.3338,-82.5794,0.0,18.81,2 
FWRI,ioos:station:FWRI:NPD:1,2013-01-08T07:59:00Z,27.3338,-82.5794,0.0,18.82,2 
FWRI,ioos:station:FWRI:NPD:1,2013-01-08T08:59:00Z,27.3338,-82.5794,0.0,18.84,2 
FWRI,ioos:station:FWRI:NPD:1,2013-01-08T09:59:00Z,27.3338,-82.5794,0.0,18.87,2 
FWRI,ioos:station:FWRI:NPD:1,2013-01-08T10:59:00Z,27.3338,-82.5794,0.0,18.87,2 
FWRI,ioos:station:FWRI:NPD:1,2013-01-08T11:59:00Z,27.3338,-82.5794,0.0,18.76,2 
FWRI,ioos:station:FWRI:NPD:1,2013-01-08T12:59:00Z,27.3338,-82.5794,0.0,18.71,2 
FWRI,ioos:station:FWRI:NPD:1,2013-01-08T13:59:00Z,27.3338,-82.5794,0.0,18.54,2 
FWRI,ioos:station:FWRI:NPD:1,2013-01-08T14:59:00Z,27.3338,-82.5794,0.0,18.57,2 
FWRI,ioos:station:FWRI:NPD:1,2013-01-08T15:59:00Z,27.3338,-82.5794,0.0,18.87,2 
FWRI,ioos:station:FWRI:NPD:1,2013-01-08T16:59:00Z,27.3338,-82.5794,0.0,21.62,2 
FWRI,ioos:station:FWRI:NPD:1,2013-01-08T17:59:00Z,27.3338,-82.5794,0.0,26.34,2 
FWRI,ioos:station:FWRI:NPD:1,2013-01-08T18:59:00Z,27.3338,-82.5794,0.0,19.7,2 
FWRI,ioos:station:FWRI:NPD:1,2013-01-08T19:59:00Z,27.3338,-82.5794,0.0,24.29,2 
FWRI,ioos:station:FWRI:NPD:1,2013-01-08T20:59:00Z,27.3338,-82.5794,0.0,27.3,2 
FWRI,ioos:station:FWRI:NPD:1,2013-01-08T21:59:00Z,27.3338,-82.5794,0.0,20.36,2 
FWRI,ioos:station:FWRI:NPD:1,2013-01-08T22:59:00Z,27.3338,-82.5794,0.0,20.18,2 
FWRI,ioos:station:FWRI:NPD:1,2013-01-08T23:59:00Z,27.3338,-82.5794,0.0,19.76,2 
FWRI,ioos:station:FWRI:NPD:1,2013-01-09T00:59:00Z,27.3338,-82.5794,0.0,19.42,2 
FWRI,ioos:station:FWRI:NPD:1,2013-01-09T01:59:00Z,27.3338,-82.5794,0.0,19.26,2 
FWRI,ioos:station:FWRI:NPD:1,2013-01-09T02:59:00Z,27.3338,-82.5794,0.0,19.21,2 
FWRI,ioos:station:FWRI:NPD:1,2013-01-09T03:59:00Z,27.3338,-82.5794,0.0,19.24,2 
FWRI,ioos:station:FWRI:NPD:1,2013-01-09T04:59:00Z,27.3338,-82.5794,0.0,19.28,2 
FWRI,ioos:station:FWRI:NPD:1,2013-01-09T05:59:00Z,27.3338,-82.5794,0.0,19.41,2 
FWRI,ioos:station:FWRI:NPD:1,2013-01-09T06:59:00Z,27.3338,-82.5794,0.0,19.69,2 
FWRI,ioos:station:FWRI:NPD:1,2013-01-09T07:59:00Z,27.3338,-82.5794,0.0,19.74,2 
FWRI,ioos:station:FWRI:NPD:1,2013-01-09T08:59:00Z,27.3338,-82.5794,0.0,19.69,2 
FWRI,ioos:station:FWRI:NPD:1,2013-01-09T09:59:00Z,27.3338,-82.5794,0.0,19.69,2 
FWRI,ioos:station:FWRI:NPD:1,2013-01-09T10:59:00Z,27.3338,-82.5794,0.0,19.66,2 
FWRI,ioos:station:FWRI:NPD:1,2013-01-09T11:59:00Z,27.3338,-82.5794,0.0,19.63,2 
FWRI,ioos:station:FWRI:NPD:1,2013-01-09T12:59:00Z,27.3338,-82.5794,0.0,19.65,2 
FWRI,ioos:station:FWRI:NPD:1,2013-01-09T13:59:00Z,27.3338,-82.5794,0.0,19.56,2 
FWRI,ioos:station:FWRI:NPD:1,2013-01-09T14:59:00Z,27.3338,-82.5794,0.0,19.48,2 
FWRI,ioos:station:FWRI:NPD:1,2013-01-09T15:59:00Z,27.3338,-82.5794,0.0,19.71,2 
FWRI,ioos:station:FWRI:NPD:1,2013-01-09T16:59:00Z,27.3338,-82.5794,0.0,19.89,2 
FWRI,ioos:station:FWRI:NPD:1,2013-01-09T17:59:00Z,27.3338,-82.5794,0.0,20.16,2 
FWRI,ioos:station:FWRI:NPD:1,2013-01-09T18:59:00Z,27.3338,-82.5794,0.0,20.39,2 
FWRI,ioos:station:FWRI:NPD:1,2013-01-09T19:59:00Z,27.3338,-82.5794,0.0,20.28,2 
FWRI,ioos:station:FWRI:NPD:1,2013-01-09T20:59:00Z,27.3338,-82.5794,0.0,20.57,2 
FWRI,ioos:station:FWRI:NPD:1,2013-01-09T21:59:00Z,27.3338,-82.5794,0.0,20.95,2 
FWRI,ioos:station:FWRI:NPD:1,2013-01-09T22:59:00Z,27.3338,-82.5794,0.0,20.64,2 
FWRI,ioos:station:FWRI:NPD:1,2013-01-09T23:59:00Z,27.3338,-82.5794,0.0,20.94,2 
FWRI,ioos:station:FWRI:NPD:1,2013-01-10T00:59:00Z,27.3338,-82.5794,0.0,20.9,2 
FWRI,ioos:station:FWRI:NPD:1,2013-01-10T01:59:00Z,27.3338,-82.5794,0.0,20.77,2 
FWRI,ioos:station:FWRI:NPD:1,2013-01-10T02:59:00Z,27.3338,-82.5794,0.0,20.6,2 
FWRI,ioos:station:FWRI:NPD:1,2013-01-10T03:59:00Z,27.3338,-82.5794,0.0,20.49,2 
FWRI,ioos:station:FWRI:NPD:1,2013-01-10T04:59:00Z,27.3338,-82.5794,0.0,20.36,2 
FWRI,ioos:station:FWRI:NPD:1,2013-01-10T05:59:00Z,27.3338,-82.5794,0.0,20.33,2 
FWRI,ioos:station:FWRI:NPD:1,2013-01-10T06:59:00Z,27.3338,-82.5794,0.0,20.36,2 
FWRI,ioos:station:FWRI:NPD:1,2013-01-10T07:59:00Z,27.3338,-82.5794,0.0,20.39,2 
FWRI,ioos:station:FWRI:NPD:1,2013-01-10T08:59:00Z,27.3338,-82.5794,0.0,20.49,2 
FWRI,ioos:station:FWRI:NPD:1,2013-01-10T09:59:00Z,27.3338,-82.5794,0.0,20.41,2 
FWRI,ioos:station:FWRI:NPD:1,2013-01-10T10:59:00Z,27.3338,-82.5794,0.0,20.35,2 
FWRI,ioos:station:FWRI:NPD:1,2013-01-10T11:59:00Z,27.3338,-82.5794,0.0,20.29,2 
FWRI,ioos:station:FWRI:NPD:1,2013-01-10T12:59:00Z,27.3338,-82.5794,0.0,20.2,2 
FWRI,ioos:station:FWRI:NPD:1,2013-01-10T13:59:00Z,27.3338,-82.5794,0.0,20.2,2 
FWRI,ioos:station:FWRI:NPD:1,2013-01-10T14:59:00Z,27.3338,-82.5794,0.0,20.07,2 
FWRI,ioos:station:FWRI:NPD:1,2013-01-10T15:59:00Z,27.3338,-82.5794,0.0,20.29,2 
FWRI,ioos:station:FWRI:NPD:1,2013-01-10T16:59:00Z,27.3338,-82.5794,0.0,20.48,2 
FWRI,ioos:station:FWRI:NPD:1,2013-01-10T17:59:00Z,27.3338,-82.5794,0.0,20.69,2 
FWRI,ioos:station:FWRI:NPD:1,2013-01-10T18:59:00Z,27.3338,-82.5794,0.0,20.96,2 
FWRI,ioos:station:FWRI:NPD:1,2013-01-10T19:59:00Z,27.3338,-82.5794,0.0,21.01,2 
FWRI,ioos:station:FWRI:NPD:1,2013-01-10T20:59:00Z,27.3338,-82.5794,0.0,21.02,2 
FWRI,ioos:station:FWRI:NPD:1,2013-01-10T21:59:00Z,27.3338,-82.5794,0.0,21.08,2 
FWRI,ioos:station:FWRI:NPD:1,2013-01-10T22:59:00Z,27.3338,-82.5794,0.0,21.21,2 
FWRI,ioos:station:FWRI:NPD:1,2013-01-10T23:59:00Z,27.3338,-82.5794,0.0,20.95,2 
FWRI,ioos:station:FWRI:NPD:1,2013-01-11T00:59:00Z,27.3338,-82.5794,0.0,20.72,2 
FWRI,ioos:station:FWRI:NPD:1,2013-01-11T01:59:00Z,27.3338,-82.5794,0.0,20.7,2 
FWRI,ioos:station:FWRI:NPD:1,2013-01-11T02:59:00Z,27.3338,-82.5794,0.0,20.55,2 
FWRI,ioos:station:FWRI:NPD:1,2013-01-11T03:59:00Z,27.3338,-82.5794,0.0,20.33,2 
FWRI,ioos:station:FWRI:NPD:1,2013-01-11T04:59:00Z,27.3338,-82.5794,0.0,20.17,2 
FWRI,ioos:station:FWRI:NPD:1,2013-01-11T05:59:00Z,27.3338,-82.5794,0.0,20.08,2 
FWRI,ioos:station:FWRI:NPD:1,2013-01-11T06:59:00Z,27.3338,-82.5794,0.0,20.07,2 
FWRI,ioos:station:FWRI:NPD:1,2013-01-11T07:59:00Z,27.3338,-82.5794,0.0,20.11,2 
FWRI,ioos:station:FWRI:NPD:1,2013-01-11T08:59:00Z,27.3338,-82.5794,0.0,20.19,2 
FWRI,ioos:station:FWRI:NPD:1,2013-01-11T09:59:00Z,27.3338,-82.5794,0.0,20.45,2 
FWRI,ioos:station:FWRI:NPD:1,2013-01-11T10:59:00Z,27.3338,-82.5794,0.0,20.46,2 
FWRI,ioos:station:FWRI:NPD:1,2013-01-11T11:59:00Z,27.3338,-82.5794,0.0,20.44,2 
FWRI,ioos:station:FWRI:NPD:1,2013-01-11T12:59:00Z,27.3338,-82.5794,0.0,20.44,2 
FWRI,ioos:station:FWRI:NPD:1,2013-01-11T13:59:00Z,27.3338,-82.5794,0.0,20.4,2 
FWRI,ioos:station:FWRI:NPD:1,2013-01-11T14:59:00Z,27.3338,-82.5794,0.0,20.48,2 
FWRI,ioos:station:FWRI:NPD:1,2013-01-11T15:59:00Z,27.3338,-82.5794,0.0,20.43,2 
FWRI,ioos:station:FWRI:NPD:1,2013-01-11T16:59:00Z,27.3338,-82.5794,0.0,20.62,2 
FWRI,ioos:station:FWRI:NPD:1,2013-01-11T17:59:00Z,27.3338,-82.5794,0.0,20.84,2 
FWRI,ioos:station:FWRI:NPD:1,2013-01-11T18:59:00Z,27.3338,-82.5794,0.0,21.07,2 
FWRI,ioos:station:FWRI:NPD:1,2013-01-11T19:59:00Z,27.3338,-82.5794,0.0,21.15,2 
FWRI,ioos:station:FWRI:NPD:1,2013-01-11T20:59:00Z,27.3338,-82.5794,0.0,21.21,2 
FWRI,ioos:station:FWRI:NPD:1,2013-01-11T21:59:00Z,27.3338,-82.5794,0.0,21.08,2 
FWRI,ioos:station:FWRI:NPD:1,2013-01-11T22:59:00Z,27.3338,-82.5794,0.0,21.37,2 
FWRI,ioos:station:FWRI:NPD:1,2013-01-11T23:59:00Z,27.3338,-82.5794,0.0,21.34,2 
FWRI,ioos:station:FWRI:NPD:1,2013-01-12T00:59:00Z,27.3338,-82.5794,0.0,21.02,2 
FWRI,ioos:station:FWRI:NPD:1,2013-01-12T01:59:00Z,27.3338,-82.5794,0.0,20.89,2 
FWRI,ioos:station:FWRI:NPD:1,2013-01-12T02:59:00Z,27.3338,-82.5794,0.0,20.9,2 
FWRI,ioos:station:FWRI:NPD:1,2013-01-12T03:59:00Z,27.3338,-82.5794,0.0,20.82,2 
FWRI,ioos:station:FWRI:NPD:1,2013-01-12T04:59:00Z,27.3338,-82.5794,0.0,20.69,2 
FWRI,ioos:station:FWRI:NPD:1,2013-01-12T05:59:00Z,27.3338,-82.5794,0.0,20.64,2 
FWRI,ioos:station:FWRI:NPD:1,2013-01-12T06:59:00Z,27.3338,-82.5794,0.0,20.56,2 
FWRI,ioos:station:FWRI:NPD:1,2013-01-12T07:59:00Z,27.3338,-82.5794,0.0,20.54,2 
FWRI,ioos:station:FWRI:NPD:1,2013-01-12T08:59:00Z,27.3338,-82.5794,0.0,20.55,2 
FWRI,ioos:station:FWRI:NPD:1,2013-01-12T09:59:00Z,27.3338,-82.5794,0.0,20.55,2 
FWRI,ioos:station:FWRI:NPD:1,2013-01-12T10:59:00Z,27.3338,-82.5794,0.0,20.66,2 
FWRI,ioos:station:FWRI:NPD:1,2013-01-12T11:59:00Z,27.3338,-82.5794,0.0,20.73,2 
FWRI,ioos:station:FWRI:NPD:1,2013-01-12T12:59:00Z,27.3338,-82.5794,0.0,20.74,2 
FWRI,ioos:station:FWRI:NPD:1,2013-01-12T13:59:00Z,27.3338,-82.5794,0.0,20.75,2 
FWRI,ioos:station:FWRI:NPD:1,2013-01-12T14:59:00Z,27.3338,-82.5794,0.0,20.78,2 
FWRI,ioos:station:FWRI:NPD:1,2013-01-12T15:59:00Z,27.3338,-82.5794,0.0,20.88,2 
FWRI,ioos:station:FWRI:NPD:1,2013-01-12T16:59:00Z,27.3338,-82.5794,0.0,21.07,2 
FWRI,ioos:station:FWRI:NPD:1,2013-01-12T17:59:00Z,27.3338,-82.5794,0.0,21.29,2 
FWRI,ioos:station:FWRI:NPD:1,2013-01-12T18:59:00Z,27.3338,-82.5794,0.0,21.43,2 
FWRI,ioos:station:FWRI:NPD:1,2013-01-12T19:59:00Z,27.3338,-82.5794,0.0,21.48,2 
FWRI,ioos:station:FWRI:NPD:1,2013-01-12T20:59:00Z,27.3338,-82.5794,0.0,21.47,2 
FWRI,ioos:station:FWRI:NPD:1,2013-01-12T21:59:00Z,27.3338,-82.5794,0.0,21.52,2 
FWRI,ioos:station:FWRI:NPD:1,2013-01-12T22:59:00Z,27.3338,-82.5794,0.0,21.83,2 
FWRI,ioos:station:FWRI:NPD:1,2013-01-12T23:59:00Z,27.3338,-82.5794,0.0,21.76,2 
FWRI,ioos:station:FWRI:NPD:1,2013-01-13T00:59:00Z,27.3338,-82.5794,0.0,21.69,2 
FWRI,ioos:station:FWRI:NPD:1,2013-01-13T01:59:00Z,27.3338,-82.5794,0.0,21.54,2 
FWRI,ioos:station:FWRI:NPD:1,2013-01-13T02:59:00Z,27.3338,-82.5794,0.0,21.32,2 
FWRI,ioos:station:FWRI:NPD:1,2013-01-13T03:59:00Z,27.3338,-82.5794,0.0,21.21,2 
FWRI,ioos:station:FWRI:NPD:1,2013-01-13T04:59:00Z,27.3338,-82.5794,0.0,21.12,2 
FWRI,ioos:station:FWRI:NPD:1,2013-01-13T05:59:00Z,27.3338,-82.5794,0.0,21.05,2 
FWRI,ioos:station:FWRI:NPD:1,2013-01-13T06:59:00Z,27.3338,-82.5794,0.0,21.0,2 
FWRI,ioos:station:FWRI:NPD:1,2013-01-13T07:59:00Z,27.3338,-82.5794,0.0,20.94,2 
FWRI,ioos:station:FWRI:NPD:1,2013-01-13T08:59:00Z,27.3338,-82.5794,0.0,20.9,2 
FWRI,ioos:station:FWRI:NPD:1,2013-01-13T09:59:00Z,27.3338,-82.5794,0.0,20.87,2 
FWRI,ioos:station:FWRI:NPD:1,2013-01-13T10:59:00Z,27.3338,-82.5794,0.0,20.86,2 